Wind_Speed
47 48 49 49 49 49 48 48 48 48 48 48 47 46 44 41 43 48 54 57 55 51 53 56 51 49 48 46 46 48 51 53 51 48 45 43 40 39 41 46 46 44 44 45 45 45 45 46 46 44 43 44 44 44 43 42 43 45 46 46 46 46 45 43 40 37 36 35 32 32 33 35 37 38 38 38 38 37 37 37 36 36 36 36 36
48 49 50 50 50 50 49 50 49 49 49 48 47 45 43 41 40 46 53 58 60 57 55 56 53 51 48 45 45 47 50 54 53 51 50 48 45 43 42 44 45 44 44 45 46 48 49 49 48 45 43 43 44 43 41 40 41 42 43 44 45 45 45 42 38 35 34 32 31 31 32 34 35 36 36 35 34 34 35 36 36 37 37 37 37
50 51 52 52 52 51 51 51 50 49 48 47 46 45 43 40 39 43 50 56 61 61 60 60 56 53 51 47 44 45 46 50 53 54 54 52 51 50 48 46 44 44 45 44 44 46 48 48 47 45 43 43 44 44 42 41 40 41 43 45 46 46 44 40 36 34 34 33 33 33 33 34 34 36 36 35 35 34 35 36 37 38 38 38 37
52 53 53 53 53 53 52 52 51 50 48 46 44 44 44 40 38 40 45 52 58 59 61 64 60 55 54 50 48 47 44 43 48 52 55 55 54 53 52 51 48 46 45 45 45 46 47 47 47 46 45 44 44 45 45 44 43 42 43 46 48 47 45 40 37 36 36 36 36 37 37 37 37 37 37 37 36 36 37 37 38 39 39 37 36
53 54 55 55 54 54 54 53 52 50 48 46 42 42 44 42 38 38 40 46 54 56 59 65 64 57 53 52 51 50 47 42 42 46 51 53 53 52 52 53 53 50 48 47 47 49 50 49 49 49 47 46 46 47 47 48 46 44 43 44 45 45 43 41 39 39 40 40 40 42 42 41 41 41 40 40 40 40 40 40 40 41 39 36 36
55 55 55 55 55 55 55 54 53 50 48 46 42 41 42 42 39 38 38 40 47 54 57 63 67 61 52 51 52 52 52 49 43 44 47 48 48 48 49 52 53 52 50 48 48 49 51 52 51 50 50 50 50 49 50 51 50 48 46 44 42 41 42 43 42 42 42 43 44 45 46 46 46 45 45 44 44 43 42 42 41 40 39 38 37
56 56 56 56 56 56 56 55 54 51 48 46 42 40 40 41 39 37 36 36 41 50 55 61 69 64 53 51 52 51 54 55 49 46 48 49 47 46 48 51 52 50 48 48 49 50 50 51 51 50 51 53 53 52 53 54 54 52 50 49 46 43 43 44 44 44 44 45 47 47 47 48 49 50 49 48 47 45 43 42 41 40 39 39 38
57 57 57 57 57 57 57 57 55 52 49 46 42 39 38 39 39 37 36 35 37 46 53 60 68 67 58 54 53 50 53 58 55 49 49 51 49 46 47 50 51 49 49 50 52 53 51 49 49 48 50 53 55 55 55 56 55 54 53 53 51 48 45 44 44 45 46 46 47 48 48 50 52 53 52 50 48 46 43 42 41 40 40 40 39
58 58 57 57 57 58 58 58 57 54 51 48 44 39 37 37 38 36 34 34 35 42 51 59 67 69 64 60 56 52 54 58 57 52 51 51 50 48 48 50 52 51 51 52 54 54 52 49 47 47 49 53 55 56 57 57 57 56 54 54 53 51 49 48 48 48 46 44 47 51 51 53 55 54 52 51 49 46 44 44 43 42 42 42 42
59 59 59 59 59 59 59 59 58 56 53 49 45 40 37 36 36 36 34 33 35 39 48 57 65 70 69 65 61 56 55 57 56 55 53 50 47 48 49 53 57 57 55 54 54 55 54 52 49 49 50 52 54 57 58 57 58 58 56 55 56 56 55 55 54 52 50 50 53 56 56 56 57 56 54 53 51 49 48 48 46 44 44 45 45
61 60 60 60 60 60 60 60 59 57 55 51 47 42 38 36 35 36 34 34 35 38 45 54 62 68 70 69 65 60 57 56 56 57 55 50 46 46 48 52 57 59 60 59 56 56 56 54 52 52 52 52 53 56 58 57 57 57 56 55 56 57 57 57 56 56 57 57 58 59 60 60 59 57 57 55 54 53 52 51 49 47 47 47 47
62 62 62 62 62 62 62 61 60 59 57 53 48 44 40 37 35 35 35 34 36 39 44 52 59 66 70 71 69 65 60 57 57 59 58 55 51 47 45 47 52 56 60 61 60 59 59 56 53 51 52 53 53 55 58 58 58 57 56 55 56 57 58 57 57 58 58 57 58 61 62 62 60 59 58 57 56 55 55 53 52 51 50 50 50
63 64 64 64 64 64 63 63 62 61 59 56 51 45 41 38 36 36 35 35 37 40 44 50 57 64 69 70 70 69 65 62 61 62 62 61 59 53 46 44 47 49 53 57 58 59 58 55 51 50 52 54 53 55 58 60 59 57 57 57 58 59 60 60 60 60 59 59 61 63 62 62 62 61 60 59 59 58 57 56 55 54 53 53 52
65 66 66 66 66 65 65 64 64 63 62 59 54 47 42 39 37 37 37 36 37 40 45 50 56 63 68 70 70 69 68 66 66 66 65 65 64 59 52 50 49 47 49 51 53 54 55 52 50 51 53 55 54 56 58 59 59 58 58 59 60 61 62 62 61 62 62 62 63 63 62 63 62 62 61 61 60 60 59 58 58 57 56 55 55
67 67 68 68 67 67 67 66 66 66 65 62 58 51 44 40 38 38 39 38 38 40 45 50 55 61 67 70 71 70 69 69 68 69 69 67 65 62 60 61 60 57 55 54 54 54 54 52 50 50 52 55 56 57 59 59 59 59 59 59 60 60 61 60 60 61 62 63 63 63 63 63 63 64 64 63 62 63 62 61 60 59 59 58 58
69 69 69 69 69 69 69 68 68 68 67 65 62 56 48 42 39 39 40 41 40 41 45 50 54 59 65 70 72 72 71 71 70 70 71 70 68 66 66 66 67 67 64 61 59 58 56 55 53 52 54 57 58 58 59 59 60 60 59 60 60 59 59 59 59 60 62 64 65 65 65 65 65 66 66 65 65 65 64 63 62 62 61 61 61
71 71 71 71 71 71 72 71 71 70 69 67 64 59 52 45 40 39 41 44 43 43 45 50 54 58 62 67 71 72 72 73 72 72 72 73 72 70 68 67 67 68 67 64 62 61 59 58 57 56 57 60 61 61 61 61 61 62 62 62 62 62 61 60 60 62 63 66 67 68 67 67 67 68 67 67 67 67 66 65 65 64 64 63 64
73 73 73 73 74 74 74 75 74 73 71 68 64 60 55 49 43 40 41 45 47 46 46 49 54 58 60 64 68 71 71 71 73 73 73 74 74 73 71 69 68 68 67 66 64 64 62 60 59 59 61 63 64 65 65 64 64 65 64 63 64 64 62 62 63 64 65 67 69 69 70 69 69 69 69 68 68 69 68 67 67 67 66 66 66
75 75 75 76 76 77 78 78 76 74 71 67 64 60 57 52 47 43 41 45 49 50 49 49 53 57 61 63 65 68 70 70 70 71 73 74 74 74 73 72 70 69 68 68 67 67 66 65 64 65 67 68 68 67 67 67 67 67 66 64 65 65 64 63 63 64 66 69 70 70 70 70 70 70 70 70 70 70 69 69 69 70 70 69 69
77 77 78 79 80 81 81 79 77 73 69 66 62 60 58 55 51 47 43 43 49 53 54 53 53 56 60 63 65 67 68 69 70 70 71 73 74 73 73 73 72 70 70 69 69 69 69 68 68 69 71 71 69 68 67 67 67 66 65 64 65 66 65 64 64 66 68 70 70 70 71 71 71 72 72 72 71 71 70 70 71 73 73 71 71
80 80 81 82 83 83 81 77 74 70 66 64 61 59 58 57 55 52 48 45 47 53 57 57 57 57 59 62 66 67 68 69 70 70 70 71 72 73 72 72 72 72 71 70 71 71 71 70 70 71 72 72 71 71 70 68 68 67 66 67 68 69 68 67 67 69 71 72 72 72 72 72 73 74 73 73 73 73 73 73 74 75 75 74 73
83 84 85 85 83 80 77 73 69 66 64 62 60 59 59 58 57 56 53 49 47 50 57 61 61 61 60 62 64 67 68 69 69 71 71 70 71 71 71 71 71 71 71 72 72 73 72 71 71 72 73 73 73 73 73 72 71 71 71 71 72 72 72 71 72 73 73 73 73 74 74 74 75 75 75 75 75 75 76 76 75 76 76 76 74
86 86 84 82 79 75 72 69 66 64 63 61 60 60 60 59 59 58 57 55 51 50 54 60 64 65 64 64 65 66 68 70 70 71 71 71 71 71 70 69 69 70 72 73 74 75 74 73 73 73 73 75 76 75 74 74 73 73 72 73 74 75 75 74 75 75 75 76 76 75 75 76 76 77 78 78 78 78 79 78 77 77 77 76 74
85 83 80 77 74 72 70 68 67 66 64 63 63 62 61 61 61 61 60 59 57 54 53 57 64 67 68 68 68 68 68 69 71 72 72 72 72 72 70 68 68 70 72 73 74 76 75 74 73 73 74 76 76 75 75 74 73 72 71 72 73 74 74 75 76 76 76 76 76 77 77 78 79 80 80 81 81 80 79 78 77 77 77 76 75
81 78 77 75 74 73 72 71 71 70 69 67 66 66 65 64 63 63 62 62 62 60 57 56 60 66 70 71 71 72 71 70 70 72 74 74 73 73 72 71 71 72 72 72 72 73 72 71 72 73 75 76 76 75 74 74 74 73 72 71 71 72 72 74 74 74 74 75 76 77 77 78 79 79 79 81 81 80 78 77 77 77 77 77 77
78 78 78 77 77 77 76 75 74 73 71 70 69 68 67 66 66 65 65 64 64 64 63 60 59 63 69 73 74 74 75 74 73 71 73 75 76 75 74 74 74 73 73 73 73 72 71 70 71 72 74 76 76 74 73 73 74 75 75 74 74 73 73 73 73 73 74 76 78 78 78 78 79 79 79 80 80 79 78 78 79 79 79 79 79
79 79 79 79 78 77 75 74 72 71 69 68 67 67 66 66 66 67 67 67 66 65 66 66 63 61 64 70 74 76 77 77 77 75 73 74 76 78 79 78 77 76 76 76 76 75 73 73 73 73 73 74 73 72 72 72 73 73 74 75 75 76 76 76 75 75 75 76 77 78 78 79 80 81 81 80 79 79 79 80 80 81 81 81 82
79 78 77 76 74 72 71 69 68 66 65 64 64 64 63 63 64 65 66 68 68 67 67 68 68 65 64 66 70 75 78 78 79 79 78 76 76 77 80 82 82 80 79 79 79 78 77 76 75 74 74 73 72 71 71 72 74 73 73 73 74 76 77 78 77 77 77 77 78 79 80 81 82 81 80 80 80 80 81 82 83 84 84 84 83
74 73 71 70 69 68 67 66 65 64 62 61 61 61 61 61 62 63 64 66 68 68 68 68 69 69 68 66 67 71 76 80 80 81 81 81 80 78 80 82 85 85 84 83 82 81 81 80 78 77 75 74 73 72 72 73 75 76 75 74 75 76 77 77 78 79 80 80 81 82 83 83 83 83 82 81 82 83 83 84 85 86 86 86 85
69 69 68 67 66 66 65 65 64 63 62 60 59 59 59 59 60 61 62 63 65 66 67 68 69 70 71 70 69 70 73 78 82 83 83 83 84 83 82 83 84 87 87 87 85 85 84 84 83 82 80 78 76 75 75 76 78 79 80 78 77 77 77 78 78 79 81 82 83 84 85 85 84 84 84 84 84 85 85 85 86 86 86 86 86
66 65 64 63 62 61 61 60 60 60 60 60 59 58 57 57 58 59 60 62 63 64 65 66 68 70 71 73 73 72 73 75 80 84 86 85 85 85 86 86 86 87 88 89 89 88 86 86 85 86 86 85 83 82 81 80 80 81 81 81 80 80 79 80 81 82 83 84 85 86 87 86 86 86 86 86 86 85 85 86 86 87 87 88 88
61 60 58 57 57 57 56 56 55 55 56 57 57 57 56 55 56 56 58 59 60 62 63 64 65 67 70 73 74 75 75 76 78 83 87 89 88 86 86 88 88 89 89 90 91 91 89 87 86 86 87 88 88 88 87 86 84 83 82 81 82 82 83 84 85 86 87 88 89 90 90 90 89 88 88 88 87 86 87 88 88 89 89 90 91
56 55 54 53 52 52 53 53 53 52 52 52 53 54 55 55 54 54 55 57 57 59 61 63 64 64 66 70 74 76 77 78 79 81 85 89 91 90 89 88 89 90 91 91 91 92 91 90 87 86 87 87 88 89 89 88 87 85 84 83 82 83 84 86 87 88 89 90 91 92 92 92 91 90 90 89 88 88 88 89 90 91 91 92 93
54 53 52 50 49 49 49 51 51 52 51 50 49 49 51 52 53 53 54 55 56 56 58 61 63 64 65 66 70 74 77 78 79 81 83 87 91 94 94 92 91 91 92 92 92 92 93 92 90 89 88 88 88 89 89 89 88 87 87 86 85 85 85 85 87 88 90 91 92 93 93 93 92 91 90 90 90 90 90 91 92 93 93 94 94
52 52 52 51 50 48 47 47 48 50 51 51 49 47 46 48 50 51 52 53 54 55 56 58 60 63 64 65 67 71 75 77 79 80 82 85 88 93 96 97 96 94 94 94 94 93 93 94 93 92 91 90 90 90 90 90 90 90 90 90 89 88 87 87 88 89 91 92 93 93 93 93 93 93 92 92 92 92 92 93 94 94 95 95 95
52 52 52 52 51 49 47 45 43 44 46 48 49 48 47 45 46 48 49 51 52 53 54 56 58 60 63 65 66 68 70 74 77 80 81 83 85 89 94 98 100 100 98 97 96 96 96 95 95 95 94 93 93 92 92 93 93 93 93 93 92 92 91 91 91 91 92 92 93 93 94 94 94 94 94 94 94 94 95 95 95 96 96 96 96
53 53 52 52 51 50 47 44 41 39 39 42 45 47 47 46 45 45 46 48 50 51 52 54 56 59 61 63 65 66 68 70 74 77 80 82 83 86 90 95 99 102 103 102 101 100 99 99 98 98 97 96 96 95 95 95 95 95 95 96 95 95 95 95 95 95 94 95 95 95 96 96 96 96 97 97 97 97 97 97 98 98 98 98 99
52 52 51 51 50 49 48 46 42 38 36 36 38 41 44 45 45 44 44 45 47 49 50 52 54 57 59 61 62 64 66 68 70 74 78 81 83 84 86 90 95 99 103 105 105 104 103 103 102 102 101 100 99 99 98 98 97 97 97 97 97 97 98 98 98 98 98 98 98 99 99 100 100 100 100 100 100 100 100 100 101 101 101 102 102
49 49 49 48 48 48 48 47 45 42 37 35 34 36 38 41 43 43 43 43 44 46 48 49 51 54 57 59 60 61 63 66 68 71 74 78 81 82 84 86 90 94 99 103 107 108 108 107 106 106 105 104 103 103 102 102 101 101 100 100 99 99 99 99 99 100 100 100 101 101 102 102 102 102 102 103 103 103 103 104 104 104 104 104 105
46 46 46 46 46 46 46 47 47 45 42 38 36 35 35 36 38 40 41 42 42 43 45 47 49 51 53 56 58 60 61 63 66 68 71 74 77 80 82 84 87 90 93 97 102 106 109 110 110 109 109 108 108 107 106 105 105 105 104 104 103 103 102 102 102 102 102 102 102 102 103 103 103 104 104 104 104 105 105 105 105 105 105 106 106
44 44 44 44 44 45 45 46 46 46 45 42 39 36 34 34 35 37 39 40 41 41 42 44 46 48 50 52 55 58 60 62 63 65 68 70 73 76 79 82 84 86 89 92 95 99 104 108 111 112 112 112 112 111 110 109 109 108 108 107 107 106 106 105 105 104 104 104 104 104 104 104 104 104 105 105 105 106 106 106 106 106 106 106 106
42 42 43 43 44 44 44 45 45 46 46 45 43 39 36 33 32 33 35 37 39 40 41 42 43 46 48 50 52 55 58 60 62 63 65 67 70 73 76 79 81 84 86 88 91 93 97 101 106 110 113 114 114 114 114 113 112 111 110 110 110 109 109 108 108 107 107 106 106 106 106 106 106 106 106 106 106 107 107 107 107 107 107 107 107
41 42 42 43 43 44 44 44 45 45 46 46 45 43 40 37 34 32 32 33 36 38 39 40 41 43 45 48 50 52 54 57 60 62 63 65 67 69 72 75 78 80 82 85 87 89 92 95 98 102 107 110 113 115 116 116 116 115 114 113 112 112 112 111 110 110 109 109 109 108 108 108 108 107 108 108 108 108 108 109 109 109 109 109 110
41 41 42 43 44 44 44 44 44 44 45 45 45 44 43 41 38 35 32 31 32 35 37 38 39 41 43 45 47 50 52 54 57 59 62 64 65 67 69 72 74 76 79 81 84 86 89 92 94 96 99 103 107 111 114 116 117 117 117 116 116 115 114 114 113 112 112 111 111 110 110 110 109 109 109 109 110 110 110 110 110 111 111 111 112
41 41 42 43 43 44 43 43 43 43 44 44 44 44 43 42 40 37 34 32 31 32 34 36 37 38 40 42 45 47 49 51 54 56 59 62 64 66 67 69 71 73 75 78 80 83 85 88 91 93 95 97 100 103 107 110 114 116 118 119 119 118 118 117 116 116 115 114 114 113 113 112 112 112 112 112 112 112 112 112 113 113 113 114 115
41 41 42 43 43 43 43 43 43 43 43 43 43 43 43 42 41 39 37 35 32 31 32 34 35 36 37 39 41 44 46 48 51 53 56 59 61 64 66 67 69 70 72 74 77 79 82 84 87 90 92 94 96 99 101 103 106 110 113 116 118 119 120 120 119 119 118 118 118 117 117 117 117 117 117 117 117 117 117 118 118 119 119 120 121
41 41 42 42 43 43 43 43 43 43 43 43 43 42 42 42 41 40 39 37 35 33 32 33 33 34 35 36 38 41 43 45 47 50 53 55 58 60 63 65 67 69 70 71 74 76 79 81 84 86 89 91 94 96 98 100 102 104 106 109 112 114 117 119 120 121 121 120 120 120 120 120 120 120 121 121 121 122 122 123 123 124 124 125 125
41 41 42 42 43 43 43 43 43 43 43 43 42 42 42 41 41 40 39 38 37 35 34 33 33 33 33 34 35 37 40 42 44 46 49 52 54 57 59 62 65 67 68 70 71 73 75 78 80 83 85 88 91 93 95 97 99 101 102 104 106 108 111 113 116 118 119 120 120 120 120 120 120 121 121 121 121 122 122 123 123 123 123 124 124
41 42 42 42 43 43 43 42 42 43 43 43 43 42 41 41 41 41 40 39 37 36 34 33 33 33 33 33 33 34 36 39 41 43 45 48 50 53 56 58 61 63 66 68 70 71 73 75 77 79 82 84 87 89 92 94 96 98 99 101 102 104 106 108 110 112 114 116 117 118 119 119 119 119 120 120 120 120 120 120 121 121 121 121 122
42 42 43 43 43 43 43 43 43 43 43 43 44 43 43 42 41 41 40 40 38 36 34 33 31 32 32 32 32 33 34 36 38 40 42 44 47 49 52 54 57 59 62 64 67 69 71 73 75 77 79 81 83 85 88 90 92 94 96 98 99 100 102 103 104 106 107 109 111 113 114 115 116 116 117 117 117 118 118 118 118 119 119 119 119
42 43 43 44 44 44 44 44 44 44 43 44 44 44 44 43 42 41 41 40 39 37 35 33 31 31 31 32 32 32 33 34 35 37 39 41 44 46 48 50 53 55 58 60 63 65 68 70 72 74 76 78 80 82 83 86 88 90 92 94 96 97 99 100 101 102 103 104 105 107 108 110 111 112 112 113 114 114 115 115 115 116 116 116 116
Wind_Direction
285 286 286 288 290 291 292 293 295 296 296 294 290 285 278 268 256 247 242 239 236 233 232 234 233 228 227 229 230 232 232 233 234 233 230 228 229 233 240 242 244 245 246 246 246 246 249 252 254 256 259 262 266 268 273 279 281 281 281 280 279 278 280 283 281 279 281 284 286 290 294 296 297 298 298 299 301 302 300 297 294 294 296 297 296
287 288 288 289 291 292 293 294 296 297 297 296 292 288 281 272 261 248 241 238 235 231 229 230 229 226 226 228 230 231 232 232 234 234 231 230 231 234 239 242 244 244 243 243 245 247 251 253 254 254 256 261 267 270 274 278 280 282 283 284 282 279 278 278 275 274 277 280 283 289 295 297 298 299 300 301 303 303 301 298 296 295 296 296 295
288 289 290 291 292 294 294 295 297 298 299 298 295 292 286 278 268 253 242 238 236 232 227 226 228 226 224 226 228 228 229 231 234 235 235 235 236 237 241 243 244 244 243 243 245 248 249 251 252 253 255 261 266 269 272 274 277 282 285 285 282 279 277 274 271 270 272 276 282 288 294 297 299 301 300 300 302 302 302 300 297 296 296 296 295
289 290 291 292 294 295 295 296 298 299 300 300 298 295 291 286 276 261 246 238 235 232 225 223 224 224 224 225 226 225 225 228 234 237 237 238 238 239 240 241 242 244 244 244 246 247 248 249 249 250 253 259 263 266 270 273 277 281 283 282 279 276 275 271 267 268 271 275 280 286 291 296 300 302 300 299 299 300 300 300 298 296 294 294 295
288 290 291 293 295 296 295 296 298 300 301 302 300 297 294 290 283 269 253 240 234 230 224 220 220 221 223 226 225 224 223 225 231 236 237 237 238 239 240 239 239 242 245 246 248 250 250 250 250 251 255 259 261 264 267 271 275 275 276 279 277 272 271 268 265 268 272 275 280 285 288 293 299 302 300 299 299 299 299 299 298 296 293 293 295
288 290 291 293 295 295 296 297 298 300 303 304 302 299 296 291 285 275 262 247 235 228 223 219 218 218 222 225 224 224 224 222 226 232 232 232 234 237 239 239 237 239 244 248 250 251 252 252 254 256 259 261 261 264 266 270 272 270 270 276 276 270 267 265 265 269 273 276 280 284 286 291 297 300 300 299 300 300 300 299 298 296 293 292 294
288 289 291 293 295 296 297 298 299 301 304 305 303 301 297 290 284 277 266 253 237 227 221 217 216 217 219 219 220 223 224 221 223 228 228 226 229 234 239 240 238 238 241 244 248 250 251 253 256 258 260 261 261 263 264 267 269 267 268 272 274 270 268 267 267 269 274 278 281 283 287 290 295 299 299 298 298 299 298 299 300 299 295 293 293
287 288 290 292 294 297 298 299 300 302 304 306 304 301 298 289 281 276 267 256 240 227 221 216 215 215 215 214 216 222 223 220 221 226 227 226 227 232 237 239 239 239 238 239 242 246 249 252 256 258 259 259 259 260 262 264 266 267 269 272 272 269 269 271 270 271 276 279 281 284 287 289 293 297 296 295 296 297 296 296 299 300 299 296 294
286 287 290 292 294 297 299 300 301 302 304 306 305 301 298 289 278 272 266 255 242 229 221 216 214 214 215 213 214 219 222 220 219 223 226 227 227 230 235 237 237 236 235 235 237 242 246 249 253 257 258 259 260 260 261 262 264 266 268 269 269 268 269 271 271 272 275 277 280 284 285 287 291 293 293 294 294 294 294 293 296 299 300 299 297
286 287 289 291 294 297 300 301 302 302 303 305 305 301 298 289 276 269 263 253 243 231 222 217 214 213 214 214 215 218 220 219 219 221 225 225 225 228 232 236 236 235 234 235 238 241 244 247 251 255 258 260 260 259 258 259 261 263 264 265 267 269 269 270 271 272 273 276 279 281 282 285 289 290 290 291 291 291 292 292 293 296 298 299 298
285 287 288 291 293 296 299 301 301 301 302 304 304 301 297 290 276 266 260 251 242 232 224 219 215 213 214 215 216 218 220 219 219 222 224 223 220 223 229 233 235 236 237 237 240 243 246 248 252 256 259 261 259 256 256 257 259 261 263 263 265 267 267 268 270 271 272 275 277 278 281 284 286 287 288 289 288 288 290 292 292 293 295 296 296
285 286 287 290 292 295 298 299 300 300 300 302 303 301 296 290 277 264 257 250 241 232 226 221 216 214 214 216 218 220 221 221 220 221 223 222 220 224 231 236 237 238 239 240 242 245 248 251 254 256 258 259 257 254 255 256 257 259 261 262 264 265 267 268 269 270 271 274 275 278 282 284 284 285 286 287 287 287 289 291 292 292 293 294 295
284 285 286 289 291 294 296 298 298 299 299 300 301 299 294 289 279 263 254 249 241 233 226 222 218 215 215 216 219 221 223 224 223 222 222 224 225 227 231 237 239 240 242 243 244 246 248 250 252 254 256 257 255 254 255 256 258 259 260 262 264 265 266 267 268 269 271 273 275 278 280 281 283 284 285 286 286 286 288 290 291 292 292 292 293
284 285 286 287 290 292 294 296 297 298 298 298 298 297 292 287 280 266 252 246 242 235 227 223 220 217 215 216 218 222 225 226 226 224 224 225 227 228 229 231 234 237 240 241 242 245 247 249 251 253 254 253 252 252 254 256 258 259 261 263 263 264 265 267 268 270 272 273 275 277 278 279 281 283 283 284 284 285 287 288 290 291 290 291 292
283 284 285 286 288 291 293 294 295 296 297 297 296 295 290 284 279 269 255 245 241 236 229 223 220 219 217 216 217 221 224 226 226 226 225 225 227 228 229 231 233 235 237 239 241 243 245 248 249 248 248 247 247 249 252 254 256 258 260 262 263 264 265 267 268 270 271 273 274 275 277 279 280 281 282 282 282 283 285 287 288 289 289 289 291
283 284 284 285 288 290 291 293 294 295 295 295 295 293 289 282 276 269 258 247 240 237 232 225 221 220 219 217 218 219 222 225 226 226 226 226 227 229 231 233 236 238 239 241 243 245 246 248 246 244 244 246 248 251 253 254 256 259 260 262 263 265 266 268 269 270 271 272 273 275 276 277 278 279 280 280 281 282 284 286 287 287 287 288 290
283 283 284 285 287 289 290 292 293 293 293 293 292 290 287 281 275 268 260 249 241 237 234 229 223 220 220 219 219 219 220 223 225 226 226 227 228 230 231 233 236 239 241 242 244 245 246 246 245 244 245 247 250 252 254 256 258 259 260 261 263 265 267 268 268 269 270 271 273 274 275 275 276 277 277 278 280 281 283 285 286 286 287 287 289
283 283 284 285 286 288 290 291 291 292 291 290 289 287 285 280 274 268 260 252 244 237 235 232 227 223 220 220 221 221 221 221 223 225 226 227 228 230 232 234 236 239 241 242 242 243 243 242 242 243 245 247 250 254 256 258 259 259 260 261 262 264 265 265 265 267 268 269 270 271 272 273 274 274 275 277 278 280 282 284 285 286 286 287 289
282 283 284 285 286 288 289 290 290 289 289 287 286 284 282 279 274 268 261 254 247 240 234 233 231 227 223 221 222 223 222 221 222 224 226 227 228 230 231 233 235 238 240 242 242 242 243 242 241 243 246 249 253 256 258 259 259 259 260 260 261 262 262 262 263 264 265 266 267 268 269 271 272 273 274 276 277 279 281 283 285 285 285 287 289
282 283 284 285 286 287 288 288 288 287 286 284 282 280 279 277 274 270 263 255 249 243 237 233 232 230 228 224 222 223 224 223 223 223 225 226 228 229 231 233 235 237 240 242 243 243 244 244 245 246 248 251 253 255 256 256 257 258 258 258 259 260 261 261 262 262 263 264 266 267 269 270 271 272 274 275 277 279 281 283 284 284 285 287 288
282 283 284 285 286 287 287 287 286 284 283 281 279 277 276 274 273 270 266 258 250 245 240 235 232 230 230 228 226 224 225 225 224 223 224 225 226 227 230 233 235 237 239 241 243 244 244 244 245 247 249 251 252 252 252 253 254 256 256 257 258 260 261 262 262 262 263 265 267 268 269 270 271 272 273 275 276 278 280 281 282 283 285 286 288
283 284 285 285 286 286 285 284 283 282 280 279 277 275 273 272 271 269 267 262 254 246 242 238 234 231 230 229 229 227 226 226 225 224 224 224 225 226 228 232 235 237 238 240 242 243 244 245 246 247 249 250 250 251 251 252 254 255 256 258 259 260 261 262 262 263 264 265 267 268 269 270 271 271 272 274 275 277 279 280 281 283 284 286 289
284 285 285 285 285 284 283 282 281 280 279 277 275 274 272 270 269 268 266 263 258 251 244 240 237 234 231 229 229 229 229 228 227 226 225 225 226 226 228 231 235 237 238 239 241 242 243 244 246 247 249 249 250 250 251 252 253 254 255 257 258 259 260 261 262 262 263 265 266 267 268 268 269 270 272 273 275 277 278 280 281 282 284 287 289
285 285 285 284 284 283 282 282 281 280 278 277 275 273 271 269 268 266 264 263 260 255 248 242 239 236 233 231 229 228 228 229 229 228 227 226 226 227 228 231 234 236 237 238 240 242 243 244 245 246 247 248 249 250 250 251 251 252 253 254 256 257 259 260 261 261 263 264 265 266 266 267 268 270 272 273 275 277 278 280 282 283 285 287 289
285 285 284 284 283 283 282 281 280 279 278 276 275 272 270 269 267 265 263 261 260 257 252 246 241 238 235 233 231 229 228 228 229 229 229 227 226 226 227 229 231 233 234 235 237 239 241 242 243 244 246 247 248 249 249 250 250 250 250 252 253 255 257 258 260 261 262 263 264 265 267 268 269 270 272 273 275 278 280 281 283 284 285 287 288
284 284 284 283 283 283 282 281 280 279 278 276 274 272 270 267 265 263 261 259 258 256 254 250 244 240 237 235 233 232 230 228 227 228 230 230 228 226 226 228 228 229 230 232 234 235 236 237 239 241 243 246 247 248 248 249 249 249 250 251 252 254 256 258 260 261 262 263 264 266 267 268 269 270 271 273 276 278 280 281 282 283 285 285 286
284 284 284 284 283 283 282 281 280 279 277 276 274 272 269 267 264 262 260 258 256 254 253 251 247 243 239 237 235 234 232 231 229 228 228 230 230 228 227 227 228 228 229 230 232 234 234 234 235 237 239 242 244 245 246 246 247 248 249 250 252 254 255 257 258 260 262 263 264 265 266 266 267 269 271 274 276 278 279 280 281 282 283 284 285
285 285 285 285 284 284 283 282 281 279 278 276 274 272 270 267 265 262 260 258 256 253 251 250 249 245 241 238 236 235 233 232 232 230 229 229 230 231 230 229 229 229 229 230 231 233 234 235 235 235 237 239 240 242 243 244 245 246 247 249 251 252 254 255 257 258 259 261 262 263 264 265 267 269 271 273 275 276 278 279 281 282 283 284 285
285 285 286 286 286 285 285 284 283 281 279 277 275 273 270 268 266 263 260 258 256 254 251 248 247 246 243 240 237 235 234 233 232 232 231 230 230 231 231 231 231 231 231 231 232 233 234 235 236 236 236 236 238 239 242 244 246 246 246 247 248 250 252 254 255 257 258 259 260 262 263 265 267 269 271 272 273 275 277 278 280 281 282 284 285
286 287 287 287 287 286 286 285 284 283 282 279 277 274 272 269 266 264 261 259 256 255 253 250 247 245 244 242 238 235 233 232 231 231 232 232 231 231 231 232 232 232 232 233 234 235 236 236 237 237 237 236 237 238 240 244 247 248 248 248 249 250 252 253 254 255 257 258 259 261 262 264 266 268 270 271 273 274 276 277 279 280 281 282 284
287 287 287 287 287 286 285 284 283 282 282 280 279 276 273 271 268 265 262 260 257 255 254 252 248 245 244 243 240 237 234 232 231 231 231 231 231 232 232 232 233 233 234 234 234 235 237 238 239 239 240 239 239 239 240 243 246 249 250 251 252 252 253 254 254 255 256 258 259 260 262 264 265 267 269 270 272 274 275 276 277 278 279 280 281
289 289 289 289 288 288 287 285 284 282 280 279 278 277 274 272 270 267 264 261 259 256 254 252 250 247 244 243 242 240 236 233 231 230 230 230 230 231 232 233 233 234 234 235 235 236 236 238 239 240 241 241 241 241 242 243 246 249 251 253 254 254 255 255 256 257 257 258 260 261 262 264 265 266 268 269 271 272 273 274 275 277 278 279 280
291 291 291 291 290 290 290 289 287 285 282 279 277 276 275 273 270 268 265 263 260 257 255 253 251 248 245 243 241 241 239 236 233 231 230 230 230 230 230 232 233 234 234 235 235 236 236 237 238 239 240 241 242 242 243 243 245 247 249 251 253 254 255 256 257 258 258 259 260 261 262 263 264 266 267 269 270 271 272 273 274 275 276 278 279
294 295 295 295 294 294 293 292 291 289 287 284 280 276 274 273 271 268 266 264 262 259 256 254 252 250 247 244 241 240 240 239 237 234 232 230 230 230 230 230 232 233 234 234 235 235 236 237 237 238 239 241 242 242 243 243 244 245 246 248 250 252 254 255 256 257 258 259 260 261 262 264 265 266 267 268 269 270 271 272 273 274 276 277 278
299 300 300 300 299 298 296 294 292 291 290 288 286 282 277 274 272 270 267 265 262 260 257 255 253 252 250 247 243 240 239 239 239 238 235 233 231 230 230 230 231 232 233 234 235 235 236 237 237 238 239 239 241 242 243 243 243 244 245 246 248 250 252 254 255 256 257 258 260 261 263 264 266 267 268 269 269 270 271 272 273 274 276 277 277
302 302 302 302 301 300 299 296 293 290 288 288 287 286 283 278 274 271 269 266 263 261 259 256 254 252 251 249 247 244 240 239 238 239 238 236 234 232 231 231 231 231 232 234 235 235 236 237 238 239 239 240 241 241 242 243 244 244 245 246 248 249 251 252 254 255 257 258 260 261 263 264 265 267 268 269 270 271 272 273 274 275 276 276 277
303 303 303 303 303 302 301 299 296 291 287 286 285 285 285 283 279 275 271 268 265 262 259 257 255 254 252 250 249 247 244 241 239 238 239 238 237 234 233 232 232 232 232 233 234 235 236 237 238 239 240 241 242 243 243 244 244 245 246 247 248 249 250 252 253 255 257 258 260 261 263 264 265 267 268 269 271 272 272 273 274 274 275 276 276
302 303 304 304 305 305 305 303 301 297 292 288 285 284 284 284 282 279 274 271 268 264 261 258 255 254 253 252 250 248 247 245 242 240 239 239 238 237 235 234 233 233 233 233 234 235 236 237 238 239 240 242 243 244 245 245 246 246 247 248 249 249 250 251 253 254 256 257 259 260 262 263 265 266 267 269 270 270 271 272 273 274 274 275 276
302 304 305 306 307 308 308 308 307 304 301 296 292 288 285 284 283 281 278 274 270 267 264 260 257 254 253 253 251 249 248 247 245 243 241 240 239 239 238 236 235 234 234 235 235 235 236 237 238 239 240 241 243 244 245 246 247 248 248 249 250 251 251 252 253 254 255 257 258 260 261 263 264 266 267 268 269 270 271 272 273 273 274 275 275
304 305 307 308 310 311 311 311 311 309 307 305 301 296 292 288 284 282 280 278 274 269 266 263 260 257 254 253 252 251 249 247 246 245 244 242 241 240 240 239 237 236 236 236 236 236 236 237 238 239 240 241 242 244 245 246 248 248 249 250 251 252 253 253 254 255 256 257 258 260 261 263 264 265 266 268 269 270 271 272 272 273 274 275 276
307 308 310 311 312 313 313 314 313 312 311 309 306 303 299 295 290 286 282 280 277 273 269 265 262 260 257 254 252 251 250 249 247 246 245 245 244 242 242 241 240 239 238 237 237 237 237 238 238 239 240 241 242 244 245 246 247 248 249 250 251 252 253 254 255 256 257 258 259 260 261 262 263 264 265 266 268 269 270 271 272 273 274 274 275
309 311 312 313 314 315 315 315 315 314 313 312 310 308 305 300 295 290 286 282 279 276 272 268 265 262 259 256 254 252 250 250 249 248 247 246 245 244 244 243 242 241 241 240 239 238 238 239 239 240 240 241 242 243 245 246 247 248 249 250 251 252 253 254 255 256 257 258 258 259 260 261 262 263 264 265 266 267 268 269 270 271 272 273 274
313 314 315 316 317 317 318 318 317 316 315 314 313 312 310 307 303 297 292 287 283 279 275 271 268 264 261 258 256 254 252 250 249 249 248 247 246 245 245 244 244 243 243 242 241 240 240 240 240 241 241 242 243 243 244 245 246 247 248 249 250 251 252 253 254 255 256 257 258 259 259 260 261 262 263 263 264 265 267 268 269 270 271 272 273
316 317 318 319 319 319 319 319 319 318 316 315 314 313 312 311 308 304 299 294 289 283 278 274 270 267 264 261 258 256 254 252 250 249 248 248 247 246 246 246 245 245 244 244 243 243 242 242 242 242 242 243 243 244 245 245 246 247 248 249 249 250 251 252 253 254 255 256 257 258 258 259 260 261 262 263 263 264 265 266 268 269 270 271 272
319 320 320 321 321 321 321 320 320 319 318 317 315 314 313 312 310 308 305 301 296 290 284 278 274 270 266 263 261 258 256 254 252 250 249 248 248 247 247 246 246 246 246 245 245 244 244 243 243 243 243 244 244 245 245 246 247 247 248 249 250 250 251 252 252 253 254 255 256 256 257 258 259 260 261 261 262 263 264 265 266 267 268 269 271
321 322 322 322 322 322 322 322 322 321 320 319 318 317 316 315 313 312 309 306 302 297 291 285 279 274 270 267 264 261 259 256 254 252 251 249 248 248 247 247 247 247 246 246 246 246 245 245 245 245 245 245 245 246 246 247 247 248 249 249 250 251 252 252 253 253 254 254 255 256 257 257 258 259 260 261 262 263 264 264 265 266 267 268 269
323 323 323 324 324 324 324 324 324 324 323 322 321 320 319 317 316 314 312 310 308 304 299 292 286 280 274 270 267 265 262 259 257 254 253 252 250 249 248 248 248 248 247 247 246 246 246 246 246 246 246 246 246 247 247 248 248 249 249 250 250 251 252 253 253 254 255 255 256 256 257 258 258 259 260 261 262 263 264 265 265 266 267 268 269
324 324 325 325 325 325 325 326 326 326 325 325 324 323 322 320 318 316 314 312 310 307 304 299 293 287 281 276 271 268 265 263 260 258 255 254 252 251 250 249 248 248 248 248 247 247 247 247 247 247 247 247 247 247 248 248 249 249 250 251 251 252 252 253 253 254 255 255 256 257 258 258 259 260 261 262 263 264 264 265 266 267 268 269 270
325 326 326 326 326 327 327 327 327 328 328 327 326 325 324 323 321 318 316 314 312 310 307 303 299 294 288 282 277 272 268 266 263 261 259 257 255 254 252 251 250 249 249 248 248 248 247 247 247 247 247 248 248 248 248 249 249 250 250 251 252 252 253 253 254 254 255 255 256 257 258 259 260 261 262 263 264 264 265 266 267 268 269 270 271
326 327 327 328 328 328 328 329 329 330 330 330 329 328 327 326 324 321 319 316 314 312 309 306 302 298 293 288 283 277 273 269 266 263 262 260 258 256 255 253 252 251 250 249 249 248 248 248 248 248 248 248 248 249 249 249 250 250 251 251 252 253 253 254 255 255 256 256 256 257 258 259 260 261 261 262 263 264 265 266 267 268 269 270 271
328 328 329 329 329 329 330 330 331 331 332 332 331 331 330 328 326 324 321 319 317 315 313 310 307 302 297 292 288 283 279 274 271 267 264 262 261 259 257 256 254 253 252 251 250 250 249 249 249 249 249 249 249 250 250 250 251 251 251 252 252 253 254 254 255 256 257 257 258 258 259 259 260 261 262 263 264 265 266 267 268 269 270 271 272
Height
10631 10630 10629 10628 10627 10626 10625 10624 10623 10622 10620 10617 10615 10613 10613 10615 10616 10617 10619 10623 10627 10631 10636 10642 10647 10652 10657 10661 10663 10665 10667 10669 10671 10672 10674 10675 10677 10678 10677 10677 10678 10678 10679 10679 10679 10679 10679 10678 10679 10680 10680 10679 10679 10679 10679 10679 10678 10677 10677 10677 10677 10677 10677 10676 10675 10674 10674 10673 10673 10672 10671 10670 10669 10668 10667 10667 10666 10666 10665 10664 10664 10663 10662 10661 10660
10625 10624 10623 10622 10621 10620 10619 10618 10617 10615 10613 10610 10607 10605 10604 10605 10607 10607 10609 10612 10616 10622 10627 10633 10640 10645 10651 10655 10657 10659 10662 10665 10666 10668 10669 10670 10672 10672 10672 10672 10673 10674 10674 10675 10676 10676 10675 10674 10675 10675 10675 10675 10675 10675 10675 10675 10674 10674 10673 10673 10673 10672 10672 10672 10671 10670 10669 10668 10668 10668 10667 10666 10665 10664 10664 10663 10663 10662 10661 10660 10660 10660 10659 10658 10656
10618 10617 10616 10615 10614 10614 10613 10612 10611 10609 10607 10604 10600 10597 10596 10596 10597 10598 10599 10601 10606 10613 10619 10626 10632 10637 10641 10644 10647 10650 10654 10658 10660 10662 10663 10666 10667 10667 10667 10668 10669 10669 10670 10671 10672 10671 10670 10669 10670 10670 10670 10671 10671 10670 10670 10671 10671 10670 10669 10668 10668 10667 10667 10667 10666 10666 10665 10664 10664 10663 10663 10662 10661 10661 10660 10660 10659 10659 10658 10657 10657 10656 10655 10654 10653
10612 10611 10610 10608 10608 10607 10606 10605 10604 10603 10601 10598 10594 10591 10588 10587 10588 10588 10589 10592 10596 10603 10610 10617 10623 10627 10632 10635 10638 10641 10645 10649 10652 10654 10656 10660 10661 10661 10661 10663 10664 10664 10665 10667 10666 10666 10665 10665 10665 10665 10665 10667 10666 10665 10665 10666 10667 10666 10665 10664 10663 10662 10661 10661 10662 10661 10660 10660 10660 10659 10658 10658 10657 10657 10657 10657 10656 10655 10655 10654 10653 10652 10651 10650 10649
10606 10605 10603 10602 10601 10600 10599 10598 10598 10596 10594 10591 10589 10585 10582 10580 10580 10580 10581 10583 10587 10593 10601 10607 10613 10619 10624 10629 10633 10635 10638 10641 10642 10644 10648 10652 10654 10655 10656 10657 10658 10659 10660 10661 10661 10660 10660 10660 10661 10661 10661 10662 10661 10660 10660 10661 10662 10662 10661 10660 10659 10657 10656 10656 10656 10656 10655 10655 10656 10655 10654 10653 10653 10653 10653 10653 10652 10651 10650 10650 10649 10648 10647 10646 10645
10600 10599 10598 10597 10595 10594 10592 10591 10591 10590 10588 10585 10583 10580 10576 10574 10573 10573 10573 10575 10579 10585 10591 10598 10604 10609 10616 10622 10626 10628 10630 10632 10632 10634 10638 10643 10646 10647 10649 10650 10652 10654 10655 10655 10656 10655 10655 10655 10655 10656 10657 10656 10655 10656 10657 10657 10656 10657 10657 10657 10656 10654 10652 10651 10651 10652 10651 10650 10651 10651 10650 10649 10649 10649 10649 10649 10648 10647 10646 10645 10645 10644 10643 10643 10641
10594 10593 10592 10590 10589 10587 10586 10585 10584 10583 10582 10580 10577 10575 10572 10569 10568 10567 10567 10569 10572 10577 10583 10589 10595 10601 10608 10615 10617 10619 10621 10623 10624 10626 10629 10633 10637 10640 10642 10643 10645 10648 10649 10651 10650 10648 10648 10649 10649 10651 10652 10651 10650 10651 10651 10651 10650 10652 10653 10652 10652 10651 10649 10647 10647 10647 10646 10645 10645 10645 10645 10644 10645 10645 10645 10645 10644 10643 10642 10641 10640 10639 10639 10638 10637
10588 10587 10585 10584 10582 10581 10579 10578 10577 10576 10575 10574 10572 10570 10567 10565 10563 10562 10562 10563 10565 10569 10575 10580 10586 10593 10601 10606 10607 10608 10611 10614 10618 10620 10622 10626 10629 10633 10635 10637 10640 10642 10643 10644 10642 10640 10641 10643 10644 10645 10645 10645 10645 10645 10645 10645 10645 10647 10648 10646 10646 10647 10646 10644 10643 10641 10642 10641 10639 10638 10639 10639 10640 10641 10640 10640 10639 10638 10637 10636 10635 10635 10634 10633 10632
10581 10580 10579 10577 10576 10574 10573 10571 10571 10570 10569 10567 10566 10564 10563 10560 10559 10558 10557 10558 10559 10563 10568 10573 10579 10586 10592 10596 10597 10598 10601 10606 10611 10615 10617 10620 10623 10627 10630 10632 10633 10634 10635 10636 10635 10634 10635 10637 10638 10639 10639 10638 10639 10640 10640 10640 10641 10642 10643 10641 10640 10642 10642 10640 10638 10636 10636 10636 10633 10631 10633 10633 10634 10635 10635 10634 10634 10633 10632 10631 10631 10630 10629 10628 10628
10574 10573 10572 10571 10570 10568 10567 10565 10564 10563 10562 10561 10560 10558 10557 10556 10554 10553 10553 10553 10554 10557 10561 10566 10571 10578 10583 10587 10589 10590 10593 10600 10605 10608 10610 10613 10616 10620 10623 10623 10623 10626 10628 10629 10629 10628 10628 10630 10631 10632 10632 10632 10633 10634 10634 10635 10635 10636 10637 10636 10634 10635 10636 10635 10634 10632 10631 10632 10629 10624 10625 10628 10629 10629 10629 10629 10629 10628 10626 10626 10626 10625 10624 10623 10623
10567 10566 10565 10564 10563 10562 10561 10559 10558 10557 10556 10555 10554 10553 10552 10551 10550 10549 10548 10548 10549 10551 10554 10559 10564 10570 10575 10579 10581 10583 10587 10593 10597 10599 10603 10607 10610 10613 10614 10613 10614 10618 10620 10622 10623 10622 10622 10624 10625 10625 10625 10626 10627 10627 10628 10629 10629 10629 10630 10630 10628 10628 10629 10629 10630 10627 10625 10627 10624 10618 10619 10623 10623 10623 10623 10623 10623 10622 10620 10620 10620 10620 10619 10618 10617
10561 10560 10559 10558 10557 10556 10554 10553 10552 10550 10549 10549 10548 10547 10546 10545 10545 10544 10544 10543 10544 10545 10548 10552 10557 10562 10567 10571 10574 10576 10580 10586 10589 10591 10596 10600 10603 10605 10607 10607 10607 10610 10612 10614 10616 10615 10616 10618 10619 10619 10618 10618 10620 10621 10621 10622 10623 10622 10623 10623 10622 10621 10622 10623 10624 10622 10620 10620 10617 10613 10614 10616 10616 10616 10616 10616 10615 10615 10614 10614 10613 10613 10613 10612 10611
10554 10553 10552 10551 10550 10549 10547 10546 10544 10543 10542 10542 10542 10541 10540 10539 10539 10539 10539 10539 10539 10540 10542 10545 10549 10554 10559 10563 10566 10569 10573 10577 10580 10584 10589 10592 10595 10598 10600 10600 10601 10603 10604 10606 10608 10608 10609 10611 10613 10613 10611 10611 10613 10614 10614 10614 10615 10616 10616 10616 10615 10615 10615 10616 10617 10616 10615 10614 10611 10610 10610 10610 10609 10609 10609 10609 10608 10607 10608 10607 10606 10606 10606 10605 10605
10548 10546 10545 10544 10543 10541 10540 10538 10537 10536 10535 10534 10535 10535 10534 10533 10533 10533 10534 10534 10534 10534 10536 10539 10542 10546 10551 10555 10559 10562 10566 10568 10571 10576 10581 10584 10587 10591 10592 10592 10593 10595 10596 10598 10599 10600 10602 10605 10606 10606 10605 10604 10606 10607 10606 10606 10607 10608 10609 10609 10608 10608 10608 10609 10610 10610 10609 10608 10605 10605 10606 10605 10603 10602 10601 10602 10602 10600 10601 10601 10599 10599 10599 10598 10599
10540 10539 10538 10536 10535 10534 10533 10531 10530 10528 10527 10527 10527 10527 10528 10527 10526 10527 10527 10528 10528 10529 10530 10532 10535 10539 10543 10547 10551 10554 10557 10560 10563 10568 10572 10576 10580 10583 10583 10584 10585 10586 10587 10590 10591 10592 10595 10597 10598 10599 10598 10598 10598 10598 10598 10599 10599 10601 10602 10602 10601 10601 10601 10603 10604 10603 10602 10600 10599 10600 10601 10600 10598 10596 10595 10596 10596 10594 10594 10594 10593 10592 10592 10592 10592
10532 10531 10530 10528 10527 10526 10524 10524 10523 10521 10520 10519 10519 10519 10520 10521 10520 10520 10520 10522 10523 10523 10524 10526 10528 10531 10535 10539 10542 10546 10548 10551 10555 10559 10563 10568 10572 10574 10575 10576 10577 10578 10580 10583 10584 10586 10588 10589 10590 10591 10591 10590 10590 10591 10591 10591 10593 10595 10595 10594 10594 10594 10595 10596 10597 10596 10595 10593 10592 10593 10595 10594 10593 10590 10588 10589 10589 10587 10587 10588 10587 10585 10585 10584 10584
10524 10523 10522 10520 10519 10517 10516 10515 10514 10514 10512 10511 10511 10511 10512 10513 10513 10513 10513 10514 10516 10517 10518 10520 10521 10524 10527 10531 10534 10537 10540 10543 10546 10550 10554 10558 10562 10565 10567 10569 10570 10571 10573 10575 10577 10578 10580 10580 10582 10584 10585 10583 10583 10584 10584 10585 10587 10588 10587 10587 10587 10587 10588 10589 10589 10589 10588 10587 10586 10586 10587 10587 10586 10583 10582 10582 10581 10580 10579 10580 10579 10578 10578 10577 10577
10515 10514 10513 10512 10510 10509 10507 10506 10505 10505 10504 10503 10502 10502 10503 10504 10505 10506 10506 10507 10508 10510 10511 10513 10515 10517 10519 10522 10525 10528 10531 10534 10537 10541 10545 10549 10553 10557 10559 10561 10562 10564 10565 10567 10569 10570 10571 10573 10575 10577 10576 10575 10575 10577 10578 10579 10580 10580 10580 10581 10581 10580 10581 10582 10581 10581 10581 10580 10579 10579 10578 10578 10578 10576 10575 10576 10575 10573 10572 10572 10572 10572 10571 10570 10570
10506 10505 10503 10502 10501 10500 10498 10497 10496 10495 10495 10494 10494 10493 10493 10494 10496 10497 10498 10499 10500 10502 10503 10505 10507 10510 10512 10514 10517 10519 10523 10526 10529 10533 10537 10540 10543 10547 10549 10550 10552 10555 10557 10558 10560 10561 10563 10566 10568 10568 10567 10568 10569 10570 10571 10572 10572 10572 10572 10574 10573 10572 10573 10574 10574 10574 10574 10572 10572 10571 10570 10570 10570 10567 10567 10568 10568 10566 10565 10565 10564 10563 10562 10563 10562
10497 10495 10494 10492 10491 10490 10488 10487 10486 10485 10485 10485 10485 10484 10484 10485 10486 10488 10490 10491 10492 10493 10495 10496 10499 10501 10504 10506 10508 10511 10513 10517 10520 10524 10528 10531 10535 10538 10539 10540 10543 10546 10548 10549 10550 10552 10555 10558 10560 10559 10559 10561 10564 10564 10564 10563 10563 10564 10566 10566 10565 10564 10565 10566 10567 10566 10565 10564 10564 10563 10562 10562 10561 10559 10559 10561 10560 10559 10558 10558 10556 10553 10553 10555 10555
10487 10486 10484 10483 10481 10479 10478 10477 10476 10475 10475 10474 10475 10475 10475 10475 10476 10478 10480 10482 10483 10485 10486 10488 10490 10492 10495 10497 10500 10502 10505 10507 10511 10515 10519 10522 10525 10528 10530 10531 10534 10537 10539 10540 10541 10542 10546 10550 10551 10551 10551 10554 10556 10556 10555 10556 10556 10556 10558 10558 10556 10556 10557 10558 10558 10557 10556 10556 10556 10555 10554 10554 10553 10551 10552 10553 10552 10551 10551 10551 10549 10546 10545 10546 10548
10477 10476 10474 10472 10471 10469 10467 10466 10466 10465 10464 10464 10465 10465 10465 10466 10466 10467 10469 10471 10474 10475 10477 10479 10480 10483 10485 10488 10491 10494 10496 10499 10502 10505 10509 10512 10515 10519 10521 10523 10525 10528 10530 10532 10533 10534 10537 10541 10542 10543 10544 10545 10546 10546 10547 10548 10548 10548 10549 10549 10548 10548 10548 10548 10548 10548 10548 10547 10547 10547 10546 10546 10544 10543 10543 10544 10543 10543 10542 10542 10541 10539 10538 10538 10539
10466 10464 10462 10461 10459 10458 10457 10456 10455 10454 10454 10454 10454 10454 10455 10456 10456 10457 10458 10460 10463 10465 10467 10469 10471 10473 10475 10478 10481 10484 10487 10490 10493 10496 10499 10502 10505 10508 10512 10515 10518 10520 10522 10523 10524 10525 10529 10532 10534 10535 10535 10534 10534 10537 10538 10539 10539 10539 10539 10539 10539 10538 10538 10538 10539 10539 10539 10539 10539 10539 10538 10537 10535 10534 10534 10535 10535 10535 10534 10533 10533 10532 10530 10529 10530
10453 10452 10450 10449 10447 10446 10446 10445 10445 10444 10444 10443 10443 10444 10444 10445 10446 10446 10447 10448 10451 10453 10456 10458 10460 10462 10465 10467 10470 10473 10476 10479 10483 10486 10489 10492 10495 10498 10503 10507 10510 10510 10511 10514 10514 10516 10520 10523 10525 10526 10524 10522 10523 10527 10529 10529 10529 10529 10529 10529 10529 10528 10528 10528 10529 10530 10530 10530 10530 10530 10529 10527 10525 10526 10526 10526 10526 10526 10525 10523 10523 10522 10521 10520 10520
10441 10439 10438 10437 10436 10435 10434 10434 10433 10433 10432 10432 10432 10432 10432 10433 10434 10435 10436 10437 10439 10441 10444 10446 10449 10451 10454 10457 10460 10463 10466 10469 10472 10476 10479 10482 10485 10489 10493 10497 10499 10500 10502 10505 10505 10507 10511 10513 10514 10514 10513 10511 10514 10517 10518 10519 10519 10520 10520 10520 10519 10519 10519 10519 10520 10521 10522 10520 10518 10518 10518 10517 10516 10517 10517 10516 10516 10517 10516 10514 10513 10513 10512 10511 10510
10430 10428 10427 10425 10424 10423 10422 10421 10421 10420 10419 10419 10419 10419 10419 10420 10421 10422 10423 10425 10427 10428 10431 10434 10436 10439 10442 10446 10449 10452 10455 10458 10462 10466 10469 10472 10476 10479 10483 10486 10488 10490 10492 10494 10494 10496 10499 10501 10502 10503 10502 10502 10504 10506 10507 10507 10508 10509 10510 10510 10510 10511 10511 10511 10511 10511 10511 10510 10508 10507 10508 10508 10507 10507 10508 10507 10507 10507 10507 10505 10504 10503 10503 10502 10501
10420 10418 10416 10414 10412 10411 10409 10408 10407 10407 10406 10406 10406 10406 10406 10407 10408 10408 10409 10411 10414 10416 10418 10420 10423 10427 10430 10433 10437 10441 10445 10448 10452 10455 10458 10462 10465 10469 10472 10475 10478 10480 10482 10483 10484 10485 10487 10489 10490 10491 10491 10492 10494 10495 10496 10496 10496 10497 10499 10500 10501 10501 10502 10502 10502 10501 10500 10499 10498 10498 10498 10498 10498 10498 10499 10499 10499 10498 10498 10496 10495 10495 10494 10493 10492
10409 10406 10404 10402 10400 10398 10396 10395 10394 10394 10393 10394 10393 10393 10393 10394 10394 10395 10396 10397 10399 10402 10405 10407 10410 10414 10417 10420 10424 10428 10433 10437 10440 10444 10447 10451 10454 10458 10461 10463 10466 10469 10471 10472 10473 10475 10476 10478 10479 10481 10481 10482 10483 10484 10485 10485 10486 10487 10488 10490 10491 10491 10491 10492 10492 10492 10491 10490 10489 10489 10489 10488 10488 10489 10490 10490 10490 10489 10488 10487 10486 10485 10484 10483 10483
10398 10396 10394 10392 10389 10387 10384 10383 10382 10381 10381 10381 10381 10380 10380 10381 10381 10382 10383 10384 10386 10388 10391 10395 10397 10400 10404 10407 10411 10415 10419 10423 10428 10431 10435 10439 10442 10446 10449 10452 10454 10457 10460 10461 10462 10463 10464 10466 10468 10470 10471 10472 10473 10474 10475 10474 10475 10476 10477 10479 10480 10480 10481 10482 10482 10482 10481 10481 10480 10480 10479 10479 10479 10480 10481 10481 10481 10480 10479 10478 10476 10475 10473 10472 10471
10389 10386 10384 10382 10379 10377 10374 10372 10370 10369 10368 10368 10368 10368 10368 10368 10368 10369 10370 10371 10372 10375 10378 10381 10384 10387 10390 10394 10397 10401 10404 10408 10413 10417 10422 10426 10429 10433 10436 10439 10442 10445 10447 10450 10451 10451 10453 10454 10456 10458 10460 10461 10463 10464 10464 10464 10464 10464 10465 10468 10470 10471 10472 10472 10472 10472 10471 10471 10470 10470 10470 10471 10471 10471 10471 10471 10471 10471 10470 10468 10467 10465 10463 10462 10461
10380 10378 10375 10372 10370 10367 10365 10363 10361 10359 10357 10356 10355 10356 10356 10356 10355 10356 10357 10358 10359 10362 10365 10367 10370 10374 10377 10380 10383 10387 10390 10394 10397 10402 10406 10411 10415 10419 10423 10426 10429 10432 10435 10437 10439 10440 10442 10444 10445 10447 10448 10450 10451 10452 10453 10453 10453 10454 10455 10457 10459 10461 10462 10462 10462 10462 10461 10461 10460 10460 10460 10461 10462 10462 10462 10461 10462 10461 10460 10459 10457 10456 10455 10454 10453
10372 10369 10367 10364 10361 10358 10355 10353 10352 10350 10347 10345 10344 10344 10344 10344 10344 10344 10345 10345 10347 10350 10351 10353 10356 10360 10363 10366 10369 10372 10376 10379 10383 10387 10391 10396 10401 10405 10409 10413 10416 10419 10422 10425 10427 10429 10430 10432 10434 10435 10437 10438 10439 10441 10442 10443 10444 10444 10445 10446 10447 10449 10450 10451 10451 10451 10451 10451 10450 10449 10449 10450 10452 10452 10452 10452 10452 10452 10451 10450 10448 10447 10446 10444 10443
10364 10361 10359 10356 10353 10350 10347 10344 10342 10340 10338 10336 10334 10333 10333 10333 10333 10333 10333 10334 10335 10337 10339 10340 10342 10346 10349 10353 10355 10358 10361 10365 10369 10373 10377 10381 10386 10391 10395 10399 10402 10405 10409 10412 10415 10417 10419 10420 10422 10423 10425 10426 10427 10429 10431 10433 10434 10434 10435 10436 10436 10437 10438 10438 10439 10439 10439 10439 10439 10438 10438 10439 10441 10442 10442 10442 10443 10443 10442 10441 10439 10438 10437 10435 10434
10355 10353 10350 10348 10345 10343 10339 10336 10333 10331 10328 10326 10325 10324 10323 10322 10322 10322 10323 10323 10324 10325 10327 10328 10329 10332 10335 10338 10341 10344 10347 10351 10356 10360 10364 10368 10372 10376 10380 10384 10388 10392 10396 10399 10402 10405 10407 10409 10410 10411 10413 10414 10416 10417 10419 10421 10422 10424 10425 10425 10426 10426 10427 10427 10427 10427 10427 10427 10427 10427 10427 10428 10429 10431 10431 10431 10432 10432 10431 10430 10429 10428 10427 10426 10425
10348 10345 10342 10339 10337 10335 10332 10329 10326 10323 10320 10317 10316 10314 10313 10312 10311 10311 10312 10313 10313 10314 10316 10317 10317 10319 10321 10324 10327 10331 10334 10338 10342 10347 10351 10355 10359 10362 10366 10370 10374 10378 10382 10385 10389 10392 10395 10396 10398 10399 10401 10402 10404 10406 10408 10409 10411 10413 10414 10415 10415 10416 10416 10416 10416 10416 10416 10416 10416 10416 10417 10417 10417 10418 10419 10420 10420 10420 10420 10419 10418 10418 10417 10416 10415
10341 10338 10335 10332 10329 10327 10325 10322 10320 10317 10313 10310 10307 10305 10304 10303 10302 10301 10301 10302 10303 10303 10305 10306 10306 10307 10308 10311 10313 10317 10322 10326 10330 10334 10337 10341 10345 10349 10352 10356 10359 10363 10367 10371 10375 10378 10381 10384 10386 10387 10388 10390 10392 10393 10395 10397 10399 10401 10402 10403 10404 10405 10405 10405 10405 10405 10406 10406 10406 10406 10407 10407 10407 10407 10407 10407 10407 10407 10407 10407 10406 10406 10405 10404 10404
10334 10332 10329 10325 10322 10319 10317 10315 10313 10311 10308 10304 10300 10298 10296 10295 10294 10293 10292 10292 10292 10293 10294 10295 10296 10296 10297 10298 10301 10304 10308 10313 10317 10321 10324 10327 10330 10335 10339 10342 10345 10349 10353 10356 10360 10364 10367 10370 10373 10375 10376 10378 10379 10381 10383 10385 10386 10388 10390 10392 10393 10394 10394 10394 10395 10395 10396 10396 10396 10396 10396 10396 10396 10396 10396 10395 10395 10395 10394 10394 10394 10393 10393 10392 10391
10329 10326 10323 10319 10315 10312 10309 10306 10304 10303 10301 10298 10295 10291 10289 10287 10285 10284 10284 10283 10282 10283 10283 10285 10286 10286 10286 10287 10290 10293 10296 10299 10303 10307 10310 10312 10315 10320 10324 10328 10332 10335 10338 10342 10346 10350 10353 10356 10359 10362 10364 10366 10368 10369 10370 10372 10374 10376 10378 10379 10380 10382 10382 10383 10384 10385 10385 10385 10385 10385 10385 10385 10385 10385 10385 10385 10384 10384 10383 10383 10382 10381 10381 10380 10379
10324 10320 10317 10314 10310 10305 10302 10298 10295 10293 10293 10291 10288 10285 10283 10280 10278 10276 10275 10275 10274 10273 10273 10274 10275 10276 10276 10277 10279 10282 10285 10287 10290 10293 10296 10299 10302 10306 10310 10314 10318 10321 10325 10328 10332 10336 10339 10343 10346 10349 10351 10354 10356 10357 10358 10360 10361 10363 10365 10366 10368 10369 10370 10371 10372 10373 10374 10374 10374 10374 10374 10374 10374 10374 10374 10373 10373 10372 10372 10371 10371 10370 10369 10368 10367
10319 10316 10312 10308 10305 10301 10296 10292 10288 10285 10284 10283 10281 10279 10277 10274 10272 10269 10268 10266 10265 10265 10265 10265 10265 10266 10267 10268 10269 10271 10273 10275 10277 10280 10283 10286 10289 10293 10296 10300 10304 10307 10311 10314 10318 10322 10326 10329 10332 10335 10338 10340 10343 10345 10346 10348 10349 10350 10352 10353 10355 10356 10357 10359 10360 10361 10362 10363 10363 10363 10363 10363 10363 10363 10362 10361 10361 10360 10359 10359 10358 10357 10356 10355 10354
10314 10311 10307 10303 10300 10296 10292 10288 10284 10279 10276 10274 10273 10272 10270 10268 10265 10263 10260 10259 10257 10256 10256 10256 10256 10256 10257 10258 10259 10260 10262 10264 10266 10269 10271 10274 10277 10280 10283 10286 10289 10293 10297 10301 10305 10308 10312 10315 10318 10321 10324 10327 10329 10332 10334 10335 10337 10338 10340 10341 10342 10343 10345 10346 10347 10348 10349 10350 10351 10351 10352 10352 10352 10352 10351 10350 10349 10348 10348 10347 10346 10345 10344 10343 10342
10310 10306 10302 10299 10295 10291 10287 10283 10279 10274 10270 10267 10265 10264 10262 10261 10259 10257 10254 10252 10250 10248 10248 10247 10247 10247 10248 10248 10249 10250 10251 10253 10255 10257 10260 10262 10265 10267 10270 10272 10276 10279 10283 10287 10291 10295 10298 10301 10304 10307 10310 10313 10316 10318 10320 10322 10324 10326 10327 10329 10330 10331 10332 10333 10335 10336 10337 10337 10338 10339 10339 10340 10341 10340 10340 10339 10339 10337 10337 10336 10335 10334 10333 10332 10331
10305 10301 10297 10293 10290 10286 10282 10278 10274 10270 10265 10262 10258 10256 10254 10253 10252 10250 10248 10245 10243 10241 10240 10239 10239 10238 10238 10239 10239 10240 10241 10243 10244 10246 10249 10251 10253 10255 10257 10259 10262 10266 10270 10273 10277 10281 10285 10288 10291 10294 10297 10300 10302 10305 10307 10309 10311 10313 10315 10316 10317 10318 10320 10321 10322 10323 10324 10325 10326 10326 10327 10328 10328 10328 10328 10328 10328 10327 10326 10324 10323 10322 10321 10320 10319
10300 10297 10293 10289 10285 10281 10277 10274 10270 10265 10261 10257 10253 10250 10248 10246 10244 10243 10241 10239 10237 10234 10232 10231 10231 10230 10230 10230 10230 10230 10232 10233 10234 10236 10237 10240 10242 10244 10246 10248 10250 10254 10257 10261 10264 10267 10271 10274 10277 10280 10283 10286 10289 10291 10293 10296 10298 10300 10302 10303 10304 10306 10307 10308 10309 10311 10312 10312 10313 10314 10315 10315 10316 10316 10316 10316 10316 10315 10314 10313 10312 10311 10310 10308 10307
10296 10292 10288 10284 10280 10276 10273 10269 10265 10261 10257 10253 10249 10245 10242 10240 10237 10235 10234 10232 10230 10228 10225 10223 10223 10222 10222 10221 10221 10221 10222 10224 10225 10226 10227 10229 10230 10233 10235 10236 10239 10242 10245 10248 10251 10254 10257 10260 10263 10267 10270 10273 10275 10278 10280 10282 10284 10287 10288 10290 10291 10293 10294 10296 10297 10298 10299 10300 10300 10301 10302 10303 10303 10303 10303 10303 10303 10303 10302 10302 10301 10300 10299 10297 10295
10291 10288 10284 10280 10276 10272 10268 10264 10261 10257 10253 10248 10244 10240 10237 10234 10231 10229 10226 10225 10223 10221 10218 10216 10215 10215 10214 10214 10213 10213 10213 10214 10215 10216 10217 10219 10220 10222 10224 10225 10228 10231 10234 10236 10239 10241 10244 10247 10250 10253 10256 10259 10262 10264 10266 10269 10271 10273 10275 10277 10278 10280 10281 10282 10284 10285 10286 10287 10288 10289 10289 10290 10290 10290 10291 10290 10290 10290 10290 10289 10288 10288 10287 10285 10284
10287 10284 10280 10276 10272 10268 10264 10260 10256 10252 10248 10244 10240 10236 10232 10229 10226 10223 10221 10218 10216 10214 10212 10210 10208 10208 10207 10207 10206 10205 10205 10206 10207 10207 10208 10209 10210 10212 10214 10215 10217 10220 10222 10225 10227 10229 10232 10234 10237 10240 10243 10246 10248 10250 10253 10255 10257 10260 10261 10263 10265 10267 10268 10269 10270 10271 10273 10274 10275 10276 10276 10277 10277 10277 10277 10277 10277 10277 10276 10276 10275 10274 10273 10272 10271
10283 10279 10276 10272 10268 10264 10260 10256 10252 10248 10244 10240 10236 10232 10228 10225 10221 10218 10216 10213 10211 10208 10206 10204 10202 10200 10200 10200 10199 10198 10198 10197 10198 10199 10199 10200 10200 10202 10204 10205 10207 10209 10211 10213 10216 10218 10220 10223 10225 10228 10230 10232 10234 10237 10239 10241 10244 10246 10248 10249 10251 10253 10254 10255 10256 10258 10259 10260 10261 10262 10263 10263 10263 10263 10263 10263 10263 10263 10262 10262 10261 10261 10260 10259 10258
10278 10275 10271 10268 10264 10260 10256 10252 10248 10244 10240 10235 10231 10227 10224 10220 10217 10213 10210 10208 10205 10203 10201 10199 10197 10194 10193 10193 10192 10191 10190 10190 10190 10190 10191 10191 10192 10193 10194 10195 10197 10198 10200 10202 10205 10207 10209 10211 10214 10216 10218 10220 10221 10224 10226 10228 10230 10232 10234 10236 10238 10239 10240 10242 10243 10244 10246 10247 10248 10249 10249 10249 10249 10249 10250 10250 10250 10249 10249 10248 10247 10247 10246 10245 10244
10274 10270 10267 10263 10260 10256 10252 10248 10244 10240 10236 10231 10227 10223 10219 10215 10212 10208 10205 10202 10199 10197 10195 10194 10192 10189 10187 10186 10185 10184 10183 10183 10182 10183 10183 10183 10183 10184 10185 10186 10187 10188 10190 10192 10194 10196 10198 10200 10202 10204 10206 10207 10209 10211 10213 10215 10217 10219 10221 10223 10224 10226 10227 10228 10230 10231 10232 10233 10234 10235 10235 10236 10236 10236 10236 10236 10236 10236 10235 10235 10234 10233 10232 10231 10230
10270 10266 10263 10259 10255 10251 10247 10244 10240 10236 10232 10228 10223 10219 10214 10210 10207 10204 10200 10197 10194 10191 10189 10188 10186 10184 10182 10180 10178 10177 10176 10176 10175 10175 10175 10175 10175 10175 10176 10177 10178 10179 10180 10181 10183 10185 10187 10189 10191 10192 10194 10196 10198 10200 10201 10203 10205 10206 10208 10210 10211 10213 10214 10215 10216 10218 10219 10220 10221 10221 10222 10222 10222 10222 10222 10222 10222 10222 10222 10222 10221 10220 10219 10217 10217